Theta_e
351 350 350 349 349 351 350 349 350 348 347 350 349 349 349 349 346 343 344 347 343 344 344 344 341 338 333 330 333 336 338 335 329 325 337 340 332 328
350 350 344 346 344 343 348 350 350 349 348 349 350 350 343 343 343 342 348 344 345 345 344 342 342 339 338 337 334 332 334 338 338 333 328 330 336 338
345 351 348 344 346 349 348 351 349 349 349 349 351 351 344 344 344 344 344 344 346 345 344 343 342 340 339 339 339 338 337 334 336 338 335 336 339 335
350 350 345 346 346 344 346 349 349 350 350 350 349 349 347 346 344 344 344 345 347 340 341 340 342 341 339 338 339 339 339 339 335 335 338 338 337 337
349 349 349 349 349 349 351 351 349 350 349 350 350 349 352 344 342 344 345 345 345 343 341 341 342 342 341 339 339 339 339 340 339 333 334 337 336 336
348 349 351 351 351 351 351 348 346 349 348 349 349 349 350 348 343 342 343 344 343 344 344 339 339 339 341 342 341 341 340 340 340 338 332 332 336 337
348 351 352 352 350 346 348 350 350 349 348 347 348 347 348 349 347 345 344 344 343 343 344 344 343 341 340 341 341 341 341 341 340 339 338 336 332 333
352 352 350 345 340 340 338 337 339 345 347 348 348 347 347 346 349 349 348 346 343 343 343 344 343 342 341 341 341 342 341 341 340 341 340 338 338 337
351 351 351 349 349 351 346 340 340 339 338 340 345 348 347 345 347 348 349 346 345 347 345 344 344 343 342 341 340 341 341 340 340 340 341 340 339 339
345 350 351 351 350 347 342 348 349 349 346 340 339 337 341 343 345 347 347 347 347 347 345 345 346 343 342 342 341 341 342 341 341 341 341 340 340 339
344 345 345 345 344 341 339 339 342 347 347 347 346 345 338 336 337 342 346 345 346 347 344 345 345 344 343 342 342 341 341 341 341 341 341 339 338 339
338 331 328 326 325 324 324 326 333 336 341 343 346 346 344 339 337 341 345 344 345 347 345 343 343 343 342 339 339 339 340 340 340 340 341 340 338 337
326 328 329 327 324 325 326 327 326 325 334 339 339 342 343 346 344 341 343 345 345 345 344 342 342 344 342 344 341 339 338 338 338 339 338 339 340 338
325 328 329 329 330 331 331 330 330 328 332 330 333 340 344 342 343 342 345 345 345 344 346 345 344 343 342 342 342 341 340 340 337 337 339 339 339 340
328 328 330 331 332 331 330 330 330 331 332 332 335 340 340 342 342 343 344 344 344 344 345 345 345 344 341 341 344 343 341 341 340 339 339 336 337 338
326 328 332 332 333 332 332 332 332 332 334 337 337 340 339 341 343 341 342 342 341 343 343 343 343 344 345 343 342 342 340 342 342 339 339 337 336 336
326 327 328 329 332 333 333 333 333 333 335 335 335 336 338 340 342 340 341 340 339 338 339 341 341 341 342 342 342 342 342 342 341 339 338 336 337 336
325 325 325 327 328 329 332 333 333 335 335 337 337 338 339 340 338 340 338 338 339 338 338 339 339 338 339 340 340 341 340 339 339 338 337 336 336 336
325 324 326 324 326 326 329 330 332 333 334 335 336 335 336 337 337 338 340 337 338 340 340 342 341 338 338 339 339 339 339 338 336 337 335 334 333 333
326 324 324 326 325 326 327 326 328 330 331 332 332 334 335 335 335 337 338 338 337 337 337 338 337 337 336 336 336 336 335 333 333 330 329 328 328 327
327 326 325 324 325 328 329 327 327 327 328 329 330 331 332 333 333 333 334 333 334 335 335 336 335 335 334 333 332 332 331 330 328 327 324 322 322 320
327 327 327 326 325 326 329 330 326 326 326 327 327 327 328 328 329 330 331 330 330 331 330 331 330 330 329 328 327 326 325 324 323 322 321 319 316 315
328 327 327 327 325 325 324 326 327 328 328 327 327 326 327 327 328 327 325 325 326 327 326 326 325 324 324 323 324 324 324 322 321 320 318 316 315 314
Wind_Speed
8 7 8 9 9 8 9 9 9 10 7 4 6 10 11 13 15 17 16 16 15 16 16 14 11 11 9 9 9 9 10 10 10 12 16 16 15 15
5 9 7 8 8 8 10 10 11 11 10 7 7 8 9 12 14 16 16 17 18 18 16 16 14 12 10 10 10 10 9 11 12 13 14 15 16 16
8 8 9 10 9 11 11 11 11 12 14 13 11 11 12 12 14 16 18 19 20 20 19 17 17 16 13 12 11 11 11 11 12 14 15 16 18 18
9 11 11 11 14 13 15 14 17 14 16 17 15 15 14 15 15 16 18 19 15 17 18 19 17 18 17 17 15 13 13 12 14 14 15 17 20 20
12 13 13 12 13 12 15 14 14 14 17 15 16 16 14 18 17 16 19 20 23 24 17 20 20 20 20 20 19 17 16 15 14 16 16 16 16 19
14 14 14 14 15 15 17 17 18 17 16 17 17 19 17 20 19 19 19 21 23 23 24 22 22 22 23 23 21 20 19 18 16 17 18 18 18 19
15 15 15 17 18 17 17 18 20 20 19 20 18 19 19 21 22 18 20 20 21 22 23 24 26 25 24 24 23 21 21 21 20 18 20 21 20 20
17 17 17 19 21 21 21 22 21 23 22 22 22 23 22 23 21 16 20 15 21 23 23 21 23 25 23 23 22 21 20 22 23 22 21 22 23 23
18 18 18 19 21 21 23 23 25 25 26 26 28 27 26 26 23 23 22 19 22 16 21 18 21 22 22 22 23 20 19 19 20 22 23 23 24 25
21 19 20 20 20 23 25 22 23 24 26 28 30 30 27 27 27 27 25 24 20 18 26 19 16 20 22 22 21 19 21 22 21 20 21 24 26 27
22 24 24 25 27 32 33 33 31 27 26 29 31 30 27 27 28 28 28 27 25 24 30 25 20 24 20 22 22 21 19 20 21 22 22 23 24 27
22 25 28 30 31 31 32 32 28 29 25 24 27 29 28 30 32 32 31 33 33 23 29 28 24 24 15 25 24 23 17 15 16 19 23 24 24 25
23 23 20 29 35 34 35 36 36 31 27 26 24 24 25 24 22 26 31 33 35 32 28 27 23 20 20 16 22 22 25 24 24 21 26 25 27 28
21 23 26 28 25 27 29 30 31 31 30 29 28 26 23 24 24 23 24 27 32 32 28 27 24 25 26 22 26 27 26 26 26 27 34 30 29 31
18 23 25 22 21 20 19 19 18 19 22 22 21 23 25 23 21 22 21 23 26 27 31 34 33 30 24 24 18 25 25 23 24 25 23 25 26 27
17 19 17 16 18 18 15 13 14 14 15 15 19 17 20 15 17 18 19 16 17 21 27 30 30 31 31 28 28 28 27 25 26 23 24 23 22 24
13 14 16 16 17 16 13 13 13 13 12 13 14 17 17 17 16 15 17 16 18 21 22 20 22 24 24 25 25 26 27 27 26 25 26 24 25 23
8 13 15 19 17 14 12 12 11 11 11 11 10 12 13 14 15 15 16 17 17 20 21 22 21 20 22 25 25 27 28 29 28 27 28 28 29 29
7 9 10 14 16 17 13 10 10 11 10 10 10 11 13 14 12 10 12 16 19 20 21 24 23 24 25 27 26 23 23 24 25 27 28 29 30 29
5 6 7 9 13 13 17 18 11 10 9 7 8 8 10 10 12 14 14 16 16 16 16 17 19 20 21 23 23 23 21 21 23 23 24 26 27 27
5 5 4 6 8 8 10 16 18 14 12 10 9 8 8 8 10 10 13 15 16 18 16 18 18 19 19 20 22 24 22 22 21 21 21 22 22 24
6 3 3 4 5 5 7 9 12 15 17 19 17 14 12 10 9 8 9 10 12 13 13 15 15 15 14 14 13 15 15 16 15 15 16 17 16 12
5 3 3 2 3 4 5 6 9 11 12 13 12 14 12 11 12 12 13 11 9 8 9 9 9 7 5 4 5 6 6 7 6 7 9 10 9 6
Wind_Direction
255 248 236 229 229 246 269 267 263 287 278 250 246 253 236 242 244 251 253 252 255 259 263 266 267 268 266 262 259 254 253 250 243 229 228 229 230 223
256 255 261 263 259 259 258 261 261 253 267 263 272 259 250 253 254 247 244 253 256 259 260 267 257 257 260 261 258 255 251 250 244 238 228 223 223 228
251 258 257 254 264 265 248 253 256 254 258 262 266 265 263 265 264 253 251 253 260 255 255 258 261 252 253 258 260 262 261 257 251 241 235 233 235 235
264 259 271 265 269 267 268 245 243 248 259 264 257 252 267 264 275 267 253 254 237 258 261 251 256 252 254 259 260 263 265 267 254 245 241 241 241 237
262 258 257 257 258 258 260 266 268 275 264 262 266 266 250 264 267 265 258 251 257 257 257 253 255 255 255 257 261 264 266 269 261 248 245 243 244 240
258 255 258 258 258 256 259 260 257 256 262 264 266 267 261 271 260 262 262 260 264 261 255 249 257 262 258 257 259 262 265 265 263 251 246 244 242 241
260 260 264 263 260 260 260 265 261 262 257 256 255 264 269 260 278 267 265 267 268 259 263 260 265 267 258 257 260 263 266 264 260 256 249 247 246 244
266 264 265 265 265 268 266 270 269 265 262 259 261 260 259 258 262 259 262 256 266 271 261 260 252 267 265 259 258 258 259 262 258 254 253 251 250 248
271 271 273 272 272 267 271 265 264 261 263 266 263 262 264 261 257 257 251 254 266 256 273 261 262 254 255 256 255 259 257 256 257 255 255 253 251 250
273 275 274 273 271 267 266 268 266 264 259 255 258 263 265 270 262 263 256 262 258 250 260 256 250 252 258 259 261 253 257 260 257 259 257 255 254 253
279 279 277 276 273 271 272 269 266 261 256 260 254 254 260 263 264 263 255 255 253 249 257 256 252 262 256 266 262 259 252 256 259 262 264 261 259 255
289 294 293 293 282 278 273 271 272 270 263 258 260 262 263 255 255 253 253 253 254 253 264 261 257 258 264 268 260 262 256 253 261 266 267 265 259 260
296 298 294 283 290 288 282 276 269 260 256 265 262 259 258 255 256 252 251 249 250 252 256 262 257 245 248 258 258 255 264 268 272 271 271 265 259 255
308 307 299 298 294 291 286 279 272 266 257 259 261 253 254 251 257 259 257 256 254 259 254 258 254 261 264 259 260 268 268 271 263 265 270 262 261 258
325 323 314 303 307 310 310 307 290 263 258 261 259 259 259 264 260 262 261 255 257 254 252 258 262 263 256 258 254 272 273 273 267 269 269 272 263 261
338 339 335 325 317 310 318 309 297 286 267 263 256 262 263 255 262 259 258 258 266 267 260 261 261 257 261 262 266 267 274 271 272 276 277 277 272 269
340 358 357 337 314 310 309 303 297 296 287 278 264 263 268 266 263 262 255 261 266 275 279 274 267 260 257 260 260 262 268 268 268 275 274 279 273 274
342 350 1 1 349 327 317 316 313 292 290 296 287 282 279 280 274 264 262 264 268 275 275 271 267 261 261 263 264 268 269 272 272 273 274 274 277 274
351 332 345 360 1 5 355 340 329 319 309 308 298 295 286 276 273 267 269 271 273 273 273 273 268 272 266 260 274 271 272 272 277 271 273 274 275 274
312 316 345 339 349 9 17 21 3 352 340 334 326 313 307 310 298 274 275 276 277 275 273 274 275 276 273 267 271 278 276 277 276 271 270 270 271 272
276 290 319 332 339 6 13 27 30 24 21 22 13 350 327 323 318 312 302 298 290 279 273 273 274 274 274 270 270 272 276 276 273 273 272 271 270 270
262 292 306 318 328 358 18 31 28 36 42 45 39 30 21 13 3 344 327 313 304 293 287 284 281 283 277 273 273 275 278 281 280 271 265 264 264 266
253 255 273 302 350 348 18 27 31 17 22 32 30 34 37 35 27 30 30 24 6 347 321 309 306 298 297 314 299 294 291 307 307 300 293 271 249 254